Location: Unspecified
(52.4292°N, 19.3359°E)
Time: 16:40:35
(UTC+02:00)

Transit 2A Rocket - Pass Details

Date: 25 May 2024
Orbit: 583 x 910 km, 66.7° (Epoch: 14 June)

Event Time Altitude Azimuth Distance (km) Brightness Sun altitude
Rises 13:38:23 0° 314° (NW) 3,439 8.3 56.7°
Reaches altitude 10° 13:41:19 10° 300° (WNW) 2,538 7.8 56.5°
Maximum altitude 13:45:44 22° 251° (WSW) 1,852 7.8 56.2°
Drops below altitude 10° 13:50:14 10° 203° (SSW) 2,589 8.5 55.8°
Sets 13:53:18 0° 189° (S) 3,526 8.9 55.6°
